GW1685 Weather Reports


Display with metric or nautical units.
time (UTC)temp
F
wind
direction
speed
MPH
gust
MPH
rain 1hr
in
rain 24hr
in
rain mn
in
humidity
%
barometer
mb
20260504024014 54 109 0.0 0.0 0.00 0.00 0.00 53 1005.2
20260504023511 54 109 0.0 0.0 0.00 0.00 0.00 53 1005.3
20260504023007 55 103 0.0 0.0 0.00 0.00 0.00 53 1005.0
20260504022503 56 112 0.0 0.0 0.00 0.00 0.00 51 1005.2
20260504021959 57 106 0.0 0.0 0.00 0.00 0.00 50 1005.2
20260504021457 58 117 0.0 0.0 0.00 0.00 0.00 47 1005.1
20260504020954 59 111 0.0 0.0 0.00 0.00 0.00 44 1005.1
20260504020450 60 123 0.0 0.0 0.00 0.00 0.00 41 1005.1
20260504015947 60 115 0.0 0.0 0.00 0.00 0.00 41 1005.2
20260504015443 61 117 0.0 0.0 0.00 0.00 0.00 40 1005.4
20260504014939 62 176 1.0 2.0 0.00 0.00 0.00 38 1005.2
20260504014436 63 127 1.0 2.0 0.00 0.00 0.00 37 1005.4
20260504013932 63 132 2.0 3.0 0.00 0.00 0.00 37 1005.3
20260504013431 63 142 2.0 3.0 0.00 0.00 0.00 36 1005.3
20260504012927 64 171 1.0 2.0 0.00 0.00 0.00 36 1005.2
20260504012425 64 226 4.0 5.0 0.00 0.00 0.00 36 1005.2
20260504011922 65 188 4.0 5.0 0.00 0.00 0.00 36 1005.4
20260504011419 65 244 3.0 3.0 0.00 0.00 0.00 35 1005.5
20260504010915 65 231 2.0 3.0 0.00 0.00 0.00 35 1005.3
20260504010411 66 154 2.0 3.0 0.00 0.00 0.00 34 1005.3
20260504005907 66 176 2.0 3.0 0.00 0.00 0.00 34 1005.3
20260504005404 67 166 2.0 2.0 0.00 0.00 0.00 33 1005.2
20260504004902 67 237 4.0 5.0 0.00 0.00 0.00 32 1005.3
20260504004400 67 231 4.0 5.0 0.00 0.00 0.00 32 1005.6
20260504003856 68 262 3.0 3.0 0.00 0.00 0.00 32 1005.6
20260504003352 68 196 4.0 6.0 0.00 0.00 0.00 31 1005.5
20260504002849 68 284 6.0 8.0 0.00 0.00 0.00 31 1005.6
20260504002346 68 227 6.0 6.0 0.00 0.00 0.00 31 1005.7
20260504001843 68 244 8.0 9.0 0.00 0.00 0.00 31 1005.6
20260504001341 68 261 8.0 9.0 0.00 0.00 0.00 31 1005.7
20260504000837 68 263 8.0 12.0 0.00 0.00 0.00 30 1005.5
20260504000335 68 234 6.0 6.0 0.00 0.00 0.00 31 1005.8
20260503235832 69 199 7.0 9.0 0.00 0.00 0.00 30 1005.8
20260503235330 69 208 7.0 8.0 0.00 0.00 0.00 30 1006.1
20260503234827 68 241 5.0 6.0 0.00 0.00 0.00 29 1005.9
20260503234325 68 240 5.0 5.0 0.00 0.00 0.00 31 1006.0
20260503233822 68 305 5.0 6.0 0.00 0.00 0.00 30 1005.8
20260503233318 68 265 8.0 12.0 0.00 0.00 0.00 30 1006.1
20260503232814 68 240 5.0 6.0 0.00 0.00 0.00 30 1005.9
20260503232312 68 226 9.0 12.0 0.00 0.00 0.00 29 1005.8
20260503231810 69 268 12.0 14.0 0.00 0.00 0.00 29 1006.0
20260503231307 69 277 9.0 11.0 0.00 0.00 0.00 29 1006.1
20260503230802 69 258 14.0 19.0 0.00 0.00 0.00 29 1006.2
20260503230300 70 240 6.0 8.0 0.00 0.00 0.00 29 1005.9
20260503225757 70 223 6.0 6.0 0.00 0.00 0.00 29 1005.9
20260503225252 69 92 3.0 5.0 0.00 0.00 0.00 29 1006.1
20260503224749 70 253 7.0 9.0 0.00 0.00 0.00 29 1006.2
20260503224247 70 185 9.0 11.0 0.00 0.00 0.00 28 1006.0
20260503223744 69 282 11.0 12.0 0.00 0.00 0.00 29 1006.4
20260503223242 69 228 7.0 8.0 0.00 0.00 0.00 28 1006.4
20260503222738 70 197 11.0 12.0 0.00 0.00 0.00 29 1006.4
20260503222236 69 241 7.0 9.0 0.00 0.00 0.00 29 1006.4
20260503221734 69 257 11.0 14.0 0.00 0.00 0.00 28 1006.4
20260503221232 69 224 7.0 9.0 0.00 0.00 0.00 28 1006.4
20260503220728 69 220 5.0 5.0 0.00 0.00 0.00 30 1006.6
20260503220225 69 273 5.0 6.0 0.00 0.00 0.00 30 1006.8
20260503215721 69 225 8.0 9.0 0.00 0.00 0.00 29 1006.7
20260503215219 69 255 12.0 14.0 0.00 0.00 0.00 29 1006.5
20260503214717 69 12 7.0 9.0 0.00 0.00 0.00 28 1006.7
20260503214213 69 240 11.0 11.0 0.00 0.00 0.00 28 1006.8
20260503213711 69 350 5.0 8.0 0.00 0.00 0.00 28 1006.6
20260503213208 68 276 8.0 11.0 0.00 0.00 0.00 30 1006.6
20260503212705 68 196 7.0 9.0 0.00 0.00 0.00 30 1006.8
20260503212203 69 270 13.0 15.0 0.00 0.00 0.00 29 1007.1
20260503211700 69 64 4.0 5.0 0.00 0.00 0.00 30 1007.0
20260503211155 69 252 4.0 5.0 0.00 0.00 0.00 29 1007.2
20260503210652 68 286 8.0 9.0 0.00 0.00 0.00 28 1007.2
20260503210149 67 34 3.0 6.0 0.00 0.00 0.00 29 1007.1
20260503205644 68 22 7.0 11.0 0.00 0.00 0.00 29 1007.4
20260503205141 68 300 7.0 12.0 0.00 0.00 0.00 29 1007.2
20260503204637 68 17 8.0 11.0 0.00 0.00 0.00 29 1007.6
20260503204135 67 354 8.0 9.0 0.00 0.00 0.00 29 1007.5
20260503203632 67 251 11.0 14.0 0.00 0.00 0.00 28 1007.5
20260503203130 68 258 13.0 17.0 0.00 0.00 0.00 28 1007.5
20260503202627 67 51 9.0 12.0 0.00 0.00 0.00 29 1007.4
20260503202125 67 329 7.0 12.0 0.00 0.00 0.00 28 1007.6
20260503201623 67 243 7.0 9.0 0.00 0.00 0.00 28 1007.6
20260503201120 68 10 9.0 14.0 0.00 0.00 0.00 28 1007.7
20260503200616 66 333 10.0 14.0 0.00 0.00 0.00 28 1007.7
20260503200112 66 256 12.0 14.0 0.00 0.00 0.00 28 1007.5
20260503195610 66 298 11.0 17.0 0.00 0.00 0.00 28 1007.9
20260503195106 66 275 17.0 20.0 0.00 0.00 0.00 27 1008.0
20260503194603 66 150 5.0 8.0 0.00 0.00 0.00 28 1007.9
20260503194058 66 282 9.0 11.0 0.00 0.00 0.00 26 1008.0
20260503193555 66 336 12.0 15.0 0.00 0.00 0.00 26 1007.9
20260503193050 65 259 9.0 12.0 0.00 0.00 0.00 26 1008.1
20260503192547 65 304 14.0 15.0 0.00 0.00 0.00 26 1008.1
20260503192043 66 282 15.0 19.0 0.00 0.00 0.00 25 1008.1
20260503191539 66 348 7.0 9.0 0.00 0.00 0.00 26 1008.1
20260503191036 66 285 7.0 11.0 0.00 0.00 0.00 24 1008.1
20260503190533 66 321 12.0 19.0 0.00 0.00 0.00 24 1008.4
20260503190030 65 290 14.0 17.0 0.00 0.00 0.00 23 1008.3
20260503185527 65 279 11.0 15.0 0.00 0.00 0.00 25 1008.1
20260503185021 66 222 15.0 19.0 0.00 0.00 0.00 23 1008.2
20260503184517 66 286 9.0 14.0 0.00 0.00 0.00 25 1008.4
20260503184014 65 259 8.0 9.0 0.00 0.00 0.00 26 1008.3
20260503183511 66 288 15.0 19.0 0.00 0.00 0.00 25 1008.5
20260503183008 65 234 9.0 14.0 0.00 0.00 0.00 25 1008.5
20260503182507 65 317 8.0 15.0 0.00 0.00 0.00 26 1008.6
20260503182004 65 284 20.0 23.0 0.00 0.00 0.00 28 1008.2
20260503181500 66 343 12.0 14.0 0.00 0.00 0.00 29 1008.4
20260503180956 64 317 9.0 12.0 0.00 0.00 0.00 32 1008.4
20260503180454 65 272 14.0 17.0 0.00 0.00 0.00 32 1008.9
20260503175951 64 237 7.0 9.0 0.00 0.00 0.00 32 1008.5
20260503175449 65 245 12.0 19.0 0.00 0.00 0.00 32 1008.8
20260503174945 65 323 10.0 14.0 0.00 0.00 0.00 32 1008.6
20260503174443 64 250 14.0 17.0 0.00 0.00 0.00 35 1008.6
20260503173938 65 309 13.0 15.0 0.00 0.00 0.00 35 1008.7
20260503173434 65 266 11.0 14.0 0.00 0.00 0.00 35 1008.7
20260503172931 65 319 13.0 19.0 0.00 0.00 0.00 35 1008.7
20260503172428 65 315 7.0 14.0 0.00 0.00 0.00 36 1008.5
20260503171925 65 272 15.0 17.0 0.00 0.00 0.00 36 1008.6
20260503171422 64 22 17.0 19.0 0.00 0.00 0.00 38 1008.4
20260503170919 64 291 14.0 17.0 0.00 0.00 0.00 39 1008.8
20260503170415 64 269 19.0 25.0 0.00 0.00 0.00 41 1008.3
20260503150808 62 289 11.0 14.0 0.00 0.00 0.00 52 1008.4
20260503150303 61 1 5.0 6.0 0.00 0.00 0.00 54 1008.2
20260503140228 58 29 8.0 11.0 0.00 0.00 0.00 59 1008.5
20260503131157 55 282 5.0 6.0 0.00 0.00 0.00 65 1008.0
20260503130655 54 302 4.0 5.0 0.00 0.00 0.00 66 1008.0
20260503130152 53 189 3.0 3.0 0.00 0.00 0.00 68 1007.9
20260503120118 43 96 0.0 0.0 0.00 0.00 0.00 89 1007.5
20260503110545 41 101 0.0 0.0 0.00 0.00 0.00 88 1006.9
20260503090432 45 96 0.0 0.0 0.00 0.00 0.00 77 1007.3
20260503081358 48 96 0.0 0.0 0.00 0.00 0.00 72 1007.8
20260503080855 49 99 0.0 0.0 0.00 0.00 0.00 71 1007.6
20260503080352 49 115 0.0 0.0 0.00 0.00 0.00 70 1007.7
20260503072829 50 91 0.0 0.0 0.00 0.00 0.00 68 1008.0
20260503072326 50 75 0.0 0.0 0.00 0.00 0.00 68 1008.1
20260503071822 50 88 0.0 0.0 0.00 0.00 0.00 69 1008.2
20260503071320 50 91 0.0 0.0 0.00 0.00 0.00 69 1008.3
20260503070815 51 101 0.0 0.0 0.00 0.00 0.00 66 1008.4
20260503070314 51 77 0.0 0.0 0.00 0.00 0.00 69 1008.3
20260503060227 52 124 0.0 0.0 0.00 0.00 0.00 65 1008.6
20260503054714 52 100 0.0 0.0 0.00 0.00 0.00 65 1009.0
20260503054211 53 103 0.0 0.0 0.00 0.00 0.00 62 1009.0
20260503053709 53 98 0.0 0.0 0.00 0.00 0.00 63 1008.8
20260503053207 53 99 0.0 0.0 0.00 0.00 0.00 64 1008.9
20260503052703 53 92 3.0 5.0 0.00 0.00 0.00 63 1008.9
20260503052200 53 99 0.0 0.0 0.00 0.00 0.00 63 1009.0
20260503051655 54 109 0.0 0.0 0.00 0.00 0.00 62 1009.0
20260503051153 55 98 1.0 3.0 0.00 0.00 0.00 62 1009.1
20260503050649 55 114 2.0 3.0 0.00 0.00 0.00 59 1009.0
20260503050146 55 106 0.0 0.0 0.00 0.00 0.00 59 1009.1
20260503045643 55 113 0.0 0.0 0.00 0.00 0.00 60 1009.3
20260503045141 56 105 0.0 0.0 0.00 0.00 0.00 61 1009.3
20260503044637 55 102 0.0 0.0 0.00 0.00 0.00 60 1009.5
20260503044135 56 100 0.0 0.0 0.00 0.00 0.00 61 1009.6
20260503043631 56 105 0.0 0.0 0.00 0.00 0.00 58 1009.7
20260503043128 56 104 0.0 0.0 0.00 0.00 0.00 58 1009.6
20260503042625 57 100 0.0 0.0 0.00 0.00 0.00 55 1009.9
20260503042120 57 99 0.0 0.0 0.00 0.00 0.00 56 1009.9
20260503041617 57 106 0.0 0.0 0.00 0.00 0.00 54 1009.9
20260503041115 57 95 0.0 0.0 0.00 0.00 0.00 53 1010.0
20260503040612 57 112 1.0 2.0 0.00 0.00 0.00 53 1010.0
20260503040110 57 99 1.0 3.0 0.00 0.00 0.00 54 1010.4
20260503035606 57 103 0.0 0.0 0.00 0.00 0.00 53 1010.3
20260503035104 57 105 0.0 0.0 0.00 0.00 0.00 53 1010.3
20260503034601 57 141 0.0 0.0 0.00 0.00 0.00 53 1010.2
20260503034058 58 104 0.0 0.0 0.00 0.00 0.00 54 1010.3
20260503033555 58 105 0.0 0.0 0.00 0.00 0.00 51 1010.5
20260503033053 58 105 0.0 0.0 0.00 0.00 0.00 50 1010.7
20260503032551 59 102 0.0 0.0 0.00 0.00 0.00 51 1010.6
20260503032049 60 102 0.0 0.0 0.00 0.00 0.00 50 1011.1
20260503031546 59 109 2.0 3.0 0.00 0.00 0.00 48 1011.0
20260503031044 60 102 0.0 0.0 0.00 0.00 0.00 49 1011.0
20260503030539 60 123 0.0 0.0 0.00 0.00 0.00 47 1011.3
20260503030037 60 212 4.0 5.0 0.00 0.00 0.00 46 1011.5
20260503025533 61 145 3.0 5.0 0.00 0.00 0.00 47 1011.5
20260503025031 60 109 0.0 0.0 0.00 0.00 0.00 48 1011.7
20260503024527 61 202 5.0 6.0 0.00 0.00 0.00 48 1011.5